1496822400.1,65488,17.25,73712.0,13.35,0.79,2.31,0,*70
1496822401.3,65489,17.25,73714.3,13.37,0.43,2.13,0,*7A
1496822402.49,65490,17.25,73712.0,13.37,-0.07,1.97,0,*60
1496822403.71,65491,17.25,73712.0,13.37,0.63,2.55,0,*73
1496822404.95,65492,17.25,73714.3,13.41,1.21,3.23,0,*46
1496822406.18,65493,17.25,73712.8,13.45,2.77,4.67,0,*44
1496822407.39,65494,17.25,73716.3,13.49,2.39,4.49,0,*49
1496822408.57,65495,17.25,73718.3,13.53,2.31,4.33,0,*46
1496822409.81,65496,17.25,73716.3,13.57,3.49,5.59,0,*42
1496822411.02,65497,17.25,73718.5,13.63,2.99,4.67,0,*44
1496822412.25,65498,17.25,73718.3,13.67,2.05,3.53,0,*4A
1496822413.46,65499,17.25,73716.3,13.71,1.79,3.23,0,*43
1496822414.72,65500,17.25,73718.0,13.77,1.85,3.19,0,*4E
1496822415.96,65501,17.25,73718.0,13.81,1.37,2.95,0,*4A
1496822417.17,65502,17.25,73716.3,13.89,1.41,2.73,0,*48
1496822418.37,65503,17.25,73720.8,13.91,1.01,2.31,0,*42
1496822419.6,65504,17.25,73720.0,13.93,0.21,1.55,0,*75
1496822420.8,65505,17.25,73716.0,13.97,-0.61,1.21,0,*5A
1496822422.01,65506,17.25,73718.8,14.01,-1.29,0.67,0,*5F
1496822423.23,65507,17.25,73714.8,14.03,-1.25,0.67,0,*50
1496822424.44,65508,17.25,73718.8,14.09,-1.21,0.55,0,*50
1496822425.64,65509,17.25,73714.3,14.15,-0.03,1.79,0,*62
1496822426.86,65510,17.25,73720.0,14.15,0.05,2.01,0,*4D
1496822428.08,65511,17.25,73722.0,14.19,-0.07,2.21,0,*6D
1496822429.31,65512,17.25,73726.3,14.23,-2.03,0.41,0,*55
1496822430.53,65513,17.25,73722.5,14.27,-5.73,-2.99,0,*4A
1496822431.78,65514,17.25,73722.0,14.27,-9.45,-6.27,0,*45
1496822433.02,65515,17.25,73718.0,14.27,-9.61,-5.69,0,*4B
1496822434.24,65516,17.25,73716.5,14.27,-9.75,-5.73,0,*46
1496822435.47,65517,17.25,73718.3,14.31,-10.67,-6.55,0,*7C
1496822436.7,65518,17.25,73714.5,14.31,-10.41,-6.31,0,*75
1496822437.96,65519,17.25,73718.8,14.33,-10.97,-6.63,0,*7A
1496822439.21,65520,17.25,73716.3,14.33,-10.63,-6.39,0,*74
1496822440.46,65521,17.25,73716.8,14.33,-10.23,-5.93,0,*72
1496822441.71,65522,17.25,73708.8,14.33,-8.11,-4.45,0,*43
1496822442.9,65523,17.25,73712.5,14.39,-6.89,-4.29,0,*4D
1496822444.15,65524,17.31,73716.3,14.41,-6.59,-5.27,0,*47
1496822445.39,65525,17.31,73720.0,14.41,-7.91,-6.59,0,*49
1496822446.66,65526,17.25,73718.0,14.45,-6.27,-4.69,0,*43
1496822447.88,65527,17.25,73716.5,14.49,-6.47,-5.51,0,*42
1496822449.12,65528,17.25,73716.0,14.55,-6.97,-6.73,0,*4E
1496822450.36,65529,17.25,73718.8,14.55,-4.77,-4.61,0,*42
1496822451.61,65530,17.25,73718.0,14.61,-5.81,-5.93,0,*49
1496822452.84,65531,17.31,73720.5,14.65,-7.69,-6.93,0,*4B
1496822454.07,65532,17.31,73722.0,14.69,-6.97,-7.15,0,*4B
1496822455.31,65533,17.25,73718.8,14.71,-7.91,-8.89,0,*4E
1496822456.53,65534,17.25,73718.5,14.75,-7.53,-9.23,0,*42
1496822457.74,65535,17.31,73718.8,14.75,-7.49,-8.89,0,*49
1496822458.92,0,17.25,73714.8,14.81,-8.63,-9.97,0,*4B
1496822460.09,1,17.31,73716.8,14.81,-9.31,-10.85,0,*77
1496822461.28,2,17.25,73716.5,14.83,-9.97,-11.23,0,*77
1496822462.5,3,17.31,73720.0,14.83,-9.57,-11.23,0,*7A
1496822463.68,4,17.31,73720.0,14.85,-8.75,-10.53,0,*7C
1496822464.85,5,17.31,73720.8,14.85,-8.45,-9.79,0,*4E
1496822466.04,6,17.25,73718.5,14.85,-6.47,-7.35,0,*47
1496822467.26,7,17.31,73718.3,14.91,-5.15,-6.09,0,*49
1496822468.46,8,17.31,73718.3,14.93,-5.15,-6.55,0,*4D
1496822469.66,9,17.25,73718.5,14.99,-5.47,-6.89,0,*40
1496822470.88,10,17.31,73722.0,15.03,-6.35,-7.23,0,*7D
1496822472.08,11,17.31,73718.8,15.01,-7.73,-8.33,0,*73
1496822473.27,12,17.31,73722.8,15.01,-9.31,-10.15,0,*45
1496822474.5,13,17.31,73722.8,15.01,-12.11,-13.79,0,*75
1496822475.77,14,17.31,73720.8,14.95,-13.01,-13.97,0,*7E
1496822477.03,15,17.31,73718.3,14.95,-13.29,-13.83,0,*70
1496822478.27,16,17.31,73716.8,14.93,-12.75,-12.61,0,*70
1496822479.49,17,17.31,73720.0,14.93,-11.07,-10.49,0,*7F
1496822480.7,18,17.31,73718.0,14.93,-11.77,-11.19,0,*73
1496822481.96,19,17.31,73718.3,14.91,-13.33,-12.15,0,*7D
1496822483.2,20,17.31,73722.3,14.91,-11.73,-11.11,0,*76
1496822484.44,21,17.31,73716.5,14.91,-11.07,-10.35,0,*73
1496822485.67,22,17.31,73722.3,14.89,-12.21,-11.63,0,*7C
1496822486.91,23,17.31,73722.3,14.89,-11.89,-11.51,0,*7D
1496822488.1,24,17.31,73718.0,14.89,-10.97,-10.93,0,*7B
1496822489.33,25,17.31,73716.8,14.87,-10.15,-10.35,0,*72
1496822490.54,26,17.31,73716.3,14.87,-10.57,-11.15,0,*74
1496822491.81,27,17.31,73718.8,14.87,-11.55,-11.93,0,*78
1496822493.05,28,17.31,73714.0,14.83,-10.41,-10.49,0,*71
1496822494.28,29,17.31,73718.5,14.85,-9.49,-9.37,0,*77
1496822495.55,30,17.31,73716.3,14.83,-11.33,-12.71,0,*75
1496822496.76,31,17.31,73718.3,14.79,-8.89,-10.23,0,*4D
1496822497.96,32,17.31,73718.8,14.81,-7.39,-9.97,0,*7A
1496822499.14,33,17.31,73720.3,14.77,-10.27,-12.43,0,*78
1496822500.35,34,17.31,73722.5,14.77,-11.59,-13.15,0,*75
1496822501.61,35,17.31,73720.5,14.71,-10.79,-11.81,0,*7E
1496822502.83,36,17.31,73720.5,14.77,-11.23,-11.97,0,*72
1496822504.01,37,17.31,73722.0,14.77,-13.93,-15.11,0,*70
1496822505.21,38,17.31,73722.8,14.77,-14.37,-15.11,0,*76
1496822506.41,39,17.31,73718.0,14.75,-14.69,-15.15,0,*7A
1496822507.63,40,17.31,73716.5,14.75,-15.95,-16.59,0,*7D
1496822508.87,41,17.31,73714.3,14.75,-19.07,-19.65,0,*7B
1496822510.13,42,17.31,73716.5,14.71,-17.17,-17.11,0,*7E
1496822511.38,43,17.31,73722.8,14.69,-15.39,-14.01,0,*7A
1496822512.63,44,17.31,73720.0,14.71,-13.79,-12.65,0,*72
1496822513.86,45,17.31,73720.8,14.69,-12.53,-12.21,0,*73
1496822515.08,46,17.31,73716.5,14.69,-10.49,-10.67,0,*79
1496822516.31,47,17.31,73722.8,14.71,-9.57,-10.15,0,*43
1496822517.54,48,17.31,73720.8,14.75,-9.23,-10.75,0,*4D
1496822518.75,49,17.31,73722.3,14.77,-9.49,-11.23,0,*40
1496822519.94,50,17.31,73720.3,14.81,-10.57,-12.25,0,*73
1496822521.17,51,17.31,73726.3,14.79,-9.27,-10.41,0,*4A
1496822522.4,52,17.31,73720.5,14.83,-7.95,-8.41,0,*72
1496822523.64,53,17.31,73724.3,14.85,-10.75,-11.63,0,*75
1496822524.86,54,17.31,73722.3,14.89,-12.97,-15.39,0,*7B
1496822526.1,55,17.31,73720.3,14.87,-15.89,-18.21,0,*78
1496822527.35,56,17.31,73720.8,14.85,-14.01,-15.81,0,*7F
1496822528.56,57,17.31,73718.5,14.85,-12.43,-14.05,0,*73
1496822529.74,58,17.31,73718.0,14.89,-13.73,-14.33,0,*77
1496822530.94,59,17.31,73720.3,14.89,-13.51,-15.11,0,*77
1496822532.17,60,17.31,73720.8,14.91,-15.57,-18.17,0,*7F
1496822533.42,61,17.31,73720.8,14.87,-14.15,-16.13,0,*74
1496822534.66,62,17.31,73724.3,14.91,-11.85,-13.15,0,*7F
1496822535.89,63,17.31,73726.0,14.93,-10.41,-12.61,0,*77
1496822537.11,64,17.31,73720.3,14.93,-9.37,-11.23,0,*4C
1496822538.32,65,17.31,73720.5,15.01,-10.01,-11.29,0,*70
1496822539.55,66,17.31,73720.3,15.03,-8.97,-9.45,0,*74
1496822540.78,67,17.31,73720.0,15.07,-8.11,-8.41,0,*7A
1496822541.99,68,17.31,73722.3,15.11,-7.39,-8.63,0,*77
1496822543.24,69,17.38,73726.3,15.15,-7.31,-9.49,0,*73
1496822544.46,70,17.31,73720.5,15.15,-6.97,-8.41,0,*7F
1496822545.67,71,17.31,73722.5,15.21,-6.35,-6.89,0,*7B
1496822546.91,72,17.31,73720.8,15.25,-5.55,-5.07,0,*7C
1496822548.11,73,17.31,73722.3,15.25,-4.61,-4.49,0,*70
1496822549.34,74,17.38,73724.8,15.25,-7.15,-7.01,0,*78
1496822550.54,75,17.38,73724.0,15.27,-7.91,-8.55,0,*79
1496822551.71,76,17.38,73724.8,15.23,-8.45,-9.31,0,*7B
1496822552.95,77,17.31,73722.5,15.21,-8.93,-9.45,0,*70
1496822554.16,78,17.31,73720.8,15.17,-8.71,-9.27,0,*72
1496822555.41,79,17.31,73720.0,15.15,-7.05,-7.61,0,*71
1496822556.65,80,17.38,73726.8,15.21,-6.81,-7.27,0,*7F
1496822557.89,81,17.38,73724.5,15.21,-5.55,-5.31,0,*71
1496822559.07,82,17.38,73726.8,15.23,-5.55,-4.65,0,*70
1496822560.3,83,17.38,73726.3,15.29,-6.01,-4.85,0,*77
1496822561.53,84,17.38,73726.0,15.33,-7.11,-6.27,0,*71
1496822562.73,85,17.38,73726.8,15.35,-8.41,-6.93,0,*73
1496822563.91,86,17.38,73726.8,15.39,-8.29,-6.31,0,*7A
1496822565.13,87,17.38,73730.8,15.45,-7.35,-5.43,0,*74
1496822566.33,88,17.38,73728.3,15.49,-7.91,-6.39,0,*77
1496822567.53,89,17.38,73724.5,15.55,-8.45,-7.15,0,*72
1496822568.77,90,17.38,73726.3,15.55,-10.75,-9.67,0,*4B
1496822570.02,91,17.38,73724.8,15.59,-9.61,-8.11,0,*7B
1496822571.25,92,17.38,73722.0,15.67,-9.23,-7.57,0,*7E
1496822572.41,93,17.38,73722.5,15.69,-10.09,-8.97,0,*42
1496822573.65,94,17.38,73726.5,15.69,-14.83,-13.87,0,*78
1496822574.85,95,17.38,73726.5,15.69,-15.43,-13.73,0,*7F
1496822576.06,96,17.38,73726.0,15.67,-12.89,-10.93,0,*7E
1496822577.29,97,17.38,73726.3,15.69,-11.07,-9.61,0,*41
1496822578.47,98,17.38,73724.5,15.73,-10.19,-8.75,0,*4F
1496822579.66,99,17.38,73728.8,15.77,-9.53,-7.87,0,*7E
1496822580.87,100,17.38,73724.8,15.81,-10.27,-9.01,0,*7D
1496822582.08,101,17.38,73730.8,15.85,-10.27,-9.19,0,*71
1496822583.3,102,17.38,73730.8,15.89,-9.49,-8.71,0,*41
1496822584.5,103,17.38,73726.5,15.93,-9.75,-8.93,0,*48
1496822585.71,104,17.38,73720.5,15.95,-12.07,-11.23,0,*45
1496822586.92,105,17.38,73720.3,15.95,-12.93,-11.89,0,*49
1496822588.14,106,17.38,73724.0,15.99,-11.59,-10.57,0,*41
1496822589.36,107,17.38,73726.5,15.99,-11.19,-10.63,0,*43
1496822590.55,108,17.38,73726.0,15.99,-13.23,-12.97,0,*4E
1496822591.77,109,17.38,73720.3,15.99,-11.89,-11.15,0,*44
1496822593.01,110,17.38,73720.3,15.99,-11.07,-9.53,0,*71
1496822594.21,111,17.38,73722.8,16.03,-8.93,-7.69,0,*42
1496822595.42,112,17.38,73720.5,16.07,-8.85,-7.01,0,*4C
1496822596.65,113,17.38,73718.3,16.11,-10.63,-8.81,0,*7C
1496822597.89,114,17.38,73720.3,16.13,-6.81,-4.73,0,*43
1496822599.11,115,17.38,73722.0,16.15,-7.01,-6.51,0,*4F
1496822600.29,116,17.38,73720.3,16.15,-6.39,-5.47,0,*42
1496822601.5,117,17.38,73720.5,16.15,-7.27,-5.43,0,*49
1496822602.72,118,17.38,73720.3,16.15,-8.11,-6.05,0,*4D
1496822603.93,119,17.38,73720.3,16.17,-7.19,-5.43,0,*48
1496822605.15,120,17.38,73724.3,16.19,-4.65,-2.59,0,*48
1496822606.38,121,17.38,73726.3,16.21,-7.35,-4.49,0,*43
1496822607.59,122,17.38,73726.5,16.19,-9.57,-6.09,0,*47
1496822608.82,123,17.38,73720.8,16.21,-11.19,-8.51,0,*7D
1496822610.06,124,17.38,73724.0,16.21,-11.29,-8.67,0,*7C
1496822611.29,125,17.38,73724.0,16.19,-13.01,-10.31,0,*44
1496822612.54,126,17.38,73720.3,16.19,-11.89,-9.37,0,*7B
1496822613.77,127,17.38,73722.5,16.19,-12.61,-10.05,0,*46
1496822615.02,128,17.38,73720.3,16.17,-12.75,-10.09,0,*4E
1496822616.26,129,17.38,73722.8,16.17,-12.65,-10.23,0,*46
1496822617.51,130,17.38,73720.5,16.17,-12.75,-9.89,0,*77
1496822618.73,131,17.38,73720.0,16.17,-11.11,-8.21,0,*74
1496822619.94,132,17.38,73716.3,16.17,-10.57,-6.73,0,*7D
1496822621.17,133,17.38,73720.0,16.15,-8.93,-5.19,0,*40
1496822622.41,134,17.38,73722.8,16.17,-6.35,-2.71,0,*4E
1496822623.68,135,17.38,73720.0,16.17,-5.31,-1.39,0,*47
1496822624.89,136,17.38,73722.5,16.21,-4.05,-0.45,0,*7D
1496822626.08,137,17.38,73720.3,16.27,-6.09,-1.75,0,*46
1496822627.29,138,17.38,73722.5,16.27,-6.05,-0.97,0,*78
1496822628.49,139,17.38,73722.5,16.27,-4.99,0.29,0,*56
1496822629.68,140,17.38,73720.0,16.31,-4.61,0.79,0,*5D
1496822630.9,141,17.44,73726.3,16.33,-3.39,1.83,0,*60
1496822632.13,142,17.44,73726.3,16.37,-3.31,1.51,0,*60
1496822633.35,143,17.38,73722.3,16.41,-2.31,1.51,0,*61
1496822634.56,144,17.38,73722.8,16.45,-0.49,2.77,0,*58
1496822635.78,145,17.38,73722.5,16.49,-0.23,3.11,0,*58
1496822637.01,146,17.38,73720.3,16.51,-1.09,2.91,0,*62
1496822638.21,147,17.38,73722.3,16.59,-0.37,4.11,0,*59
1496822639.47,148,17.38,73720.8,16.63,-2.47,2.51,0,*68
1496822640.64,149,17.44,73720.0,16.69,-3.03,2.27,0,*63
1496822641.9,150,17.44,73722.0,16.71,-2.03,3.45,0,*66
1496822643.15,151,17.44,73724.0,16.75,-1.99,3.79,0,*6C
1496822644.38,152,17.38,73722.0,16.81,-3.23,2.47,0,*6B
1496822645.6,153,17.38,73718.5,16.83,-4.85,1.13,0,*61
1496822646.85,154,17.44,73722.8,16.81,-6.19,0.13,0,*52
1496822648.1,155,17.44,73726.5,16.81,-5.03,1.29,0,*63
1496822649.32,156,17.44,73726.3,16.83,-4.93,1.51,0,*65
1496822650.49,157,17.44,73726.5,16.83,-4.45,1.79,0,*65
1496822651.67,158,17.44,73722.8,16.83,-9.89,-3.15,0,*42
1496822652.88,159,17.44,73720.8,16.75,-9.79,-3.03,0,*42
1496822654.09,160,17.44,73720.5,16.73,-8.63,-1.87,0,*4A
1496822655.32,161,17.44,73720.5,16.69,-7.65,-1.05,0,*43
1496822656.51,162,17.44,73720.5,16.65,-9.19,-2.39,0,*45
1496822657.71,163,17.44,73720.8,16.63,-10.23,-3.23,0,*79
1496822658.95,164,17.44,73720.5,16.55,-8.97,-2.03,0,*4E
1496822660.19,165,17.44,73722.5,16.51,-8.59,-1.91,0,*41
1496822661.41,166,17.44,73720.3,16.51,-8.71,-1.67,0,*41
1496822662.64,167,17.44,73720.0,16.47,-6.89,0.13,0,*51
1496822663.85,168,17.44,73720.0,16.45,-4.93,1.89,0,*67
1496822665.04,169,17.44,73716.8,16.45,-4.29,2.61,0,*62
1496822666.23,170,17.44,73720.0,16.45,-4.05,2.65,0,*60
1496822667.47,171,17.44,73718.8,16.47,-3.39,2.89,0,*69
1496822668.7,172,17.44,73722.3,16.49,-2.71,3.33,0,*69
1496822669.91,173,17.44,73718.8,16.49,-1.39,4.23,0,*61
1496822671.1,174,17.44,73716.3,16.53,0.59,5.33,0,*77
1496822672.33,175,17.44,73716.3,16.53,1.21,5.77,0,*48
1496822673.52,176,17.44,73718.8,16.59,1.83,6.07,0,*4D
1496822674.78,177,17.44,73718.0,16.63,1.13,4.75,0,*4B
1496822675.98,178,17.44,73720.3,16.61,-0.69,3.07,0,*55
1496822677.2,179,17.44,73718.3,16.63,-0.33,3.03,0,*5D
1496822678.39,180,17.44,73720.3,16.61,-0.33,2.43,0,*5C
1496822679.64,181,17.44,73716.5,16.55,-0.93,1.55,0,*54
1496822680.88,182,17.44,73714.8,16.55,0.47,2.89,0,*71
1496822682.11,183,17.44,73716.8,16.51,1.41,3.45,0,*42
1496822683.36,184,17.44,73716.0,16.51,0.75,2.39,0,*79
1496822684.58,185,17.44,73718.5,16.47,-0.57,0.79,0,*64
1496822685.8,186,17.44,73718.5,16.43,0.51,1.85,0,*7A
1496822687.02,187,17.44,73718.0,16.41,0.79,1.83,0,*75
1496822688.25,188,17.44,73720.0,16.39,1.51,2.69,0,*49
1496822689.47,189,17.44,73720.5,16.37,2.09,2.91,0,*4F
1496822690.71,190,17.44,73718.8,16.33,0.47,1.33,0,*70
1496822691.93,191,17.44,73716.5,16.29,0.25,1.01,0,*7F
1496822693.12,192,17.44,73716.5,16.23,0.09,0.59,0,*74
1496822694.35,193,17.44,73716.5,16.23,1.37,1.93,0,*4E
1496822695.55,194,17.44,73716.0,16.19,2.01,2.35,0,*49
1496822696.79,195,17.44,73712.0,16.17,2.17,2.61,0,*40
1496822698.04,196,17.44,73714.3,16.17,2.09,2.39,0,*41
1496822699.27,197,17.44,73716.0,16.15,2.39,2.51,0,*4F
1496822700.5,198,17.44,73714.0,16.13,1.51,1.75,0,*4E
1496822701.72,199,17.44,73710.8,16.11,1.93,2.05,0,*47
1496822702.95,200,17.44,73712.0,16.05,2.05,2.21,0,*4B
1496822704.14,201,17.44,73712.0,16.03,2.13,2.27,0,*4D
1496822705.38,202,17.44,73710.8,16.01,2.13,2.17,0,*4F
1496822706.6,203,17.44,73708.3,15.99,1.29,1.29,0,*48
1496822707.85,204,17.44,73710.5,15.97,1.37,1.37,0,*41
1496822709.07,205,17.44,73708.5,15.93,1.71,1.83,0,*49
1496822710.29,206,17.44,73712.5,15.93,1.67,1.71,0,*40
1496822711.52,207,17.5,73714.5,15.89,0.87,0.95,0,*4E
1496822712.71,208,17.44,73712.8,15.83,1.05,1.29,0,*46
1496822713.93,209,17.44,73710.8,15.79,0.79,1.01,0,*72
1496822715.12,210,17.44,73712.0,15.77,1.63,1.79,0,*41
1496822716.34,211,17.44,73708.8,15.75,-0.23,-0.15,0,*4C
1496822717.59,212,17.44,73710.5,15.71,2.39,2.51,0,*40
1496822718.83,213,17.44,73710.3,15.71,2.01,2.01,0,*4F
1496822720.06,214,17.44,73710.0,15.67,0.13,-0.23,0,*61
1496822721.28,215,17.44,73708.3,15.61,1.37,1.43,0,*4B
1496822722.49,216,17.44,73708.3,15.61,2.55,2.55,0,*4B
1496822723.65,217,17.44,73708.5,15.61,2.27,2.31,0,*4D
1496822724.82,218,17.44,73708.8,15.57,2.95,2.95,0,*40
1496822726.04,219,17.44,73710.3,15.57,3.53,3.67,0,*46
1496822727.21,220,17.44,73712.0,15.57,3.29,3.25,0,*47
1496822728.41,221,17.44,73708.3,15.57,2.65,2.47,0,*4A
1496822729.64,222,17.44,73714.0,15.53,1.33,1.33,0,*4D
1496822730.9,223,17.44,73714.3,15.51,1.33,1.29,0,*45
1496822732.12,224,17.44,73710.0,15.49,2.47,2.39,0,*49
1496822733.31,225,17.44,73712.3,15.47,1.17,0.97,0,*76
1496822734.52,226,17.44,73712.5,15.45,1.59,1.41,0,*47
1496822735.71,227,17.44,73710.0,15.43,0.97,0.75,0,*45
1496822736.93,228,17.5,73714.8,15.39,1.33,1.29,0,*40
1496822738.13,229,17.44,73708.5,15.35,2.59,2.35,0,*4C
1496822739.35,230,17.44,73712.5,15.35,2.25,2.01,0,*48
1496822740.57,231,17.44,73714.3,15.35,2.25,1.97,0,*45
1496822741.78,232,17.44,73714.3,15.33,2.91,2.55,0,*42
1496822743.0,233,17.44,73712.8,15.31,3.03,2.69,0,*44
1496822744.2,234,17.44,73708.0,15.31,3.63,3.41,0,*4E
1496822745.43,235,17.44,73708.5,15.31,3.11,2.81,0,*47
1496822746.6,236,17.44,73714.3,15.31,3.25,2.91,0,*42
1496822747.8,237,17.5,73712.8,15.31,3.11,2.65,0,*4F
1496822749.02,238,17.5,73716.5,15.27,3.45,3.19,0,*4C
1496822750.21,239,17.44,73712.8,15.27,2.69,2.31,0,*49
1496822751.46,240,17.44,73712.5,15.25,1.85,1.63,0,*40
1496822752.65,241,17.5,73718.8,15.23,1.75,1.43,0,*4A
1496822753.87,242,17.5,73714.3,15.23,1.47,1.21,0,*4C
1496822755.11,243,17.5,73718.0,15.17,0.95,0.75,0,*44
1496822756.3,244,17.44,73712.0,15.13,1.83,1.51,0,*46
1496822757.51,245,17.5,73712.8,15.09,2.05,1.93,0,*4F
1496822758.7,246,17.44,73714.8,15.09,1.09,0.97,0,*76
1496822759.92,247,17.5,73714.0,15.05,0.79,0.75,0,*41
1496822761.18,248,17.44,73712.5,15.03,1.33,1.21,0,*47
1496822762.42,249,17.44,73714.3,14.99,0.87,0.63,0,*4D
1496822763.66,250,17.5,73716.0,14.95,0.79,0.71,0,*4B
1496822764.9,251,17.44,73712.0,14.91,0.91,0.79,0,*40
1496822766.12,252,17.44,73714.5,14.89,1.59,1.33,0,*40
1496822767.34,253,17.5,73718.3,14.87,2.01,1.79,0,*4F
1496822768.57,254,17.5,73716.8,14.85,1.37,1.09,0,*4B
1496822769.81,255,17.5,73718.3,14.83,1.63,1.47,0,*47
1496822771.03,256,17.5,73714.0,14.81,2.43,2.21,0,*44
1496822772.27,257,17.5,73716.8,14.79,1.67,1.37,0,*43
1496822773.47,258,17.5,73716.3,14.77,1.93,1.79,0,*43
1496822774.69,259,17.5,73720.3,14.75,2.35,2.13,0,*40
1496822775.93,260,17.5,73718.5,14.71,1.93,1.67,0,*41
1496822777.15,261,17.5,73716.3,14.69,1.47,1.13,0,*43
1496822778.39,262,17.5,73720.8,14.67,1.55,1.29,0,*44
1496822779.59,263,17.5,73718.5,14.65,2.01,1.83,0,*45
1496822780.83,264,17.5,73720.0,14.63,2.13,1.89,0,*4D
1496822782.05,265,17.5,73720.8,14.61,1.85,1.67,0,*42
1496822783.29,266,17.5,73718.5,14.59,1.85,1.71,0,*4D
1496822784.51,267,17.5,73722.5,14.57,2.55,2.39,0,*43
1496822785.72,268,17.5,73720.0,14.57,2.61,2.51,0,*45
1496822786.91,269,17.5,73722.8,14.57,2.51,2.35,0,*45
1496822788.14,270,17.5,73720.0,14.55,2.85,2.61,0,*47
1496822789.36,271,17.5,73720.8,14.55,2.91,2.69,0,*4B
1496822790.57,272,17.5,73720.5,14.55,2.59,2.31,0,*41
1496822791.79,273,17.5,73720.8,14.55,2.59,2.35,0,*44
1496822793.02,274,17.5,73720.3,14.53,2.81,2.59,0,*4A
1496822794.2,275,17.5,73720.8,14.53,2.91,2.61,0,*41
1496822795.41,276,17.5,73718.3,14.47,2.25,1.93,0,*46
1496822796.63,277,17.5,73722.3,14.49,2.99,2.89,0,*46
1496822797.83,278,17.5,73722.3,14.47,3.11,2.95,0,*4B
1496822799.02,279,17.5,73720.8,14.47,2.85,2.65,0,*49
1496822800.24,280,17.5,73722.0,14.47,2.89,2.73,0,*44
1496822801.43,281,17.5,73720.0,14.47,3.45,3.25,0,*46
1496822802.59,282,17.5,73720.5,14.47,3.93,3.85,0,*44
1496822803.76,283,17.5,73726.0,14.47,3.85,3.81,0,*46
1496822804.95,284,17.5,73722.8,14.47,3.81,3.79,0,*42
1496822806.15,285,17.5,73722.5,14.49,3.85,3.81,0,*4E
1496822807.34,286,17.5,73722.8,14.47,4.07,4.05,0,*45
1496822808.54,287,17.5,73722.8,14.47,4.05,3.93,0,*4E
1496822809.76,288,17.5,73720.8,14.49,3.49,3.29,0,*41
1496822810.98,289,17.5,73722.0,14.49,2.99,2.89,0,*47
1496822812.2,290,17.5,73722.0,14.47,3.23,3.23,0,*40
1496822813.41,291,17.5,73722.5,14.47,2.13,2.01,0,*42
1496822814.6,292,17.5,73722.5,14.47,2.95,2.85,0,*43
1496822815.82,293,17.5,73724.0,14.47,3.11,3.11,0,*43
1496822817.03,294,17.5,73722.3,14.47,2.05,2.01,0,*40
1496822818.28,295,17.5,73722.3,14.45,2.39,2.51,0,*49
1496822819.5,296,17.5,73726.0,14.43,1.97,2.21,0,*4C
1496822820.7,297,17.5,73722.8,14.43,2.35,2.59,0,*49
1496822821.89,298,17.5,73722.0,14.43,2.95,3.23,0,*40
1496822823.1,299,17.5,73726.3,14.45,3.25,3.67,0,*4D
1496822824.27,300,17.5,73722.8,14.43,3.29,3.55,0,*47
1496822825.5,301,17.5,73724.0,14.45,2.65,3.15,0,*4D
1496822826.72,302,17.5,73724.0,14.45,2.99,3.33,0,*49
1496822827.96,303,17.5,73726.8,14.49,1.09,1.13,0,*4E
1496822829.19,304,17.5,73726.8,14.43,1.97,2.39,0,*4F
1496822830.41,305,17.5,73726.5,14.43,2.21,2.39,0,*40
1496822831.63,306,17.5,73722.0,14.43,1.09,1.17,0,*45
1496822832.84,307,17.5,73726.8,14.43,0.55,0.79,0,*45
1496822834.01,308,17.5,73724.0,14.43,-1.51,-1.55,0,*40
1496822835.25,309,17.5,73726.5,14.39,-5.31,-5.31,0,*48
1496822836.44,310,17.5,73724.5,14.31,-3.39,-3.11,0,*42
1496822837.62,311,17.5,73728.0,14.31,-4.65,-4.49,0,*47
1496822838.89,312,17.5,73730.8,14.25,-5.93,-5.89,0,*44
1496822840.1,313,17.5,73724.5,14.19,-6.09,-5.55,0,*4B
1496822841.33,314,17.5,73724.8,14.17,-7.01,-6.27,0,*4D
1496822842.51,315,17.5,73722.8,14.13,-6.55,-5.97,0,*40
1496822843.71,316,17.5,73724.3,14.13,-5.23,-4.41,0,*4B
1496822844.92,317,17.5,73724.8,14.13,-7.23,-5.89,0,*4D
1496822846.16,318,17.5,73724.5,14.15,-7.11,-5.19,0,*4C
1496822847.41,319,17.5,73726.0,14.19,-7.69,-5.19,0,*4E
1496822848.62,320,17.5,73726.3,14.23,-9.19,-6.27,0,*4A
1496822849.8,321,17.5,73724.5,14.23,-9.67,-6.01,0,*46
1496822851.01,322,17.5,73728.5,14.25,-10.53,-6.35,0,*7B
1496822852.23,323,17.5,73728.3,14.31,-9.15,-4.53,0,*47
1496822853.44,324,17.5,73726.8,14.33,-8.29,-4.21,0,*49
1496822854.7,325,17.5,73728.3,14.37,-8.81,-4.81,0,*44
1496822855.92,326,17.5,73726.5,14.37,-9.31,-5.47,0,*46
1496822857.15,327,17.5,73724.8,14.41,-9.01,-4.93,0,*4D
1496822858.33,328,17.5,73726.0,14.43,-6.85,-2.83,0,*44
1496822859.57,329,17.5,73726.0,14.45,-5.69,-1.67,0,*4B
1496822860.78,330,17.5,73724.8,14.55,-6.55,-2.35,0,*4A
1496822862.01,331,17.5,73722.3,14.59,-5.97,-1.87,0,*40
1496822863.24,332,17.5,73724.5,14.63,-5.69,-1.59,0,*48
1496822864.42,333,17.5,73720.8,14.69,-4.49,-0.33,0,*7D
1496822865.62,334,17.5,73722.3,14.75,-4.37,-0.57,0,*7C
1496822866.83,335,17.5,73722.5,14.81,-5.31,-1.63,0,*47
1496822868.04,336,17.5,73724.8,14.85,-5.77,-1.71,0,*41
1496822869.31,337,17.5,73726.3,14.87,-5.85,-1.43,0,*4E
1496822870.49,338,17.5,73724.5,14.89,-4.57,-0.37,0,*73
1496822871.67,339,17.5,73724.5,14.89,-3.87,0.09,0,*68
1496822872.89,340,17.5,73726.5,14.93,-2.07,1.71,0,*6A
1496822874.14,341,17.5,73724.0,14.99,-1.87,1.71,0,*6A
1496822875.39,342,17.5,73722.0,14.99,-1.47,2.05,0,*65
1496822876.59,343,17.5,73722.8,15.01,-0.37,3.15,0,*52
1496822877.77,344,17.5,73726.0,15.05,0.67,4.19,0,*72
1496822878.98,345,17.5,73720.3,15.07,0.71,4.15,0,*7A
1496822880.18,346,17.5,73724.0,15.07,1.01,4.37,0,*4F
1496822881.4,347,17.5,73724.5,15.11,2.59,5.95,0,*4E
1496822882.63,348,17.5,73724.3,15.17,2.73,5.67,0,*42
1496822883.81,349,17.5,73726.5,15.17,0.05,2.95,0,*4A
1496822885.03,350,17.5,73726.8,15.17,-0.65,1.89,0,*57
1496822886.21,351,17.5,73728.5,15.17,0.05,2.35,0,*49
1496822887.42,352,17.5,73724.8,15.15,-2.19,-0.11,0,*73
1496822888.64,353,17.5,73728.0,15.13,-2.71,-0.97,0,*74
1496822889.85,354,17.5,73724.3,15.11,-1.75,-0.11,0,*78
1496822891.07,355,17.5,73726.5,15.09,-1.05,0.67,0,*5B
1496822892.29,356,17.5,73728.5,15.09,-1.13,0.47,0,*5D
1496822893.49,357,17.5,73728.0,15.07,-1.79,-0.45,0,*71
1496822894.68,358,17.5,73726.8,15.05,-3.39,-2.35,0,*4F
1496822895.86,359,17.5,73728.8,15.01,-3.11,-2.39,0,*4C
1496822897.07,360,17.5,73726.8,14.95,-2.27,-1.63,0,*42
1496822898.28,361,17.5,73724.8,14.89,-1.99,-1.59,0,*41
1496822899.47,362,17.5,73722.3,14.87,-0.29,0.09,0,*5F
1496822900.67,363,17.5,73720.5,14.83,0.43,0.87,0,*4D
1496822901.92,364,17.5,73724.5,14.83,1.37,1.63,0,*43
1496822903.13,365,17.5,73722.0,14.85,0.29,0.51,0,*4A
1496822904.3,366,17.5,73726.8,14.81,0.01,0.41,0,*76
1496822905.52,367,17.5,73722.5,14.79,-0.27,-0.03,0,*72
1496822906.75,368,17.5,73720.8,14.75,0.29,0.67,0,*4D
1496822907.95,369,17.5,73726.0,14.69,0.21,0.41,0,*4D
1496822909.14,370,17.5,73724.5,14.69,0.09,0.47,0,*79
1496822910.36,371,17.56,73726.0,14.67,1.51,1.75,0,*4A
1496822911.6,372,17.56,73728.3,14.67,1.21,1.51,0,*48
1496822912.81,373,17.5,73726.3,14.65,0.33,0.71,0,*4A
1496822914.03,374,17.5,73724.3,14.65,1.33,1.67,0,*4A
1496822915.26,375,17.5,73726.0,14.61,2.43,2.81,0,*40
1496822916.5,376,17.5,73724.8,14.63,2.13,2.47,0,*4E
1496822917.71,377,17.5,73724.5,14.65,2.89,3.23,0,*49
1496822918.9,378,17.5,73724.0,14.65,3.23,3.55,0,*46
1496822920.12,379,17.56,73728.0,14.67,2.95,3.23,0,*48
1496822921.28,380,17.5,73726.5,14.65,-0.15,0.05,0,*5C
1496822922.49,381,17.5,73730.8,14.65,0.55,0.79,0,*4F
1496822923.72,382,17.5,73728.0,14.63,0.41,0.55,0,*41
1496822924.9,383,17.5,73726.5,14.61,-0.65,-0.49,0,*49
1496822926.08,384,17.5,73726.3,14.57,0.43,0.79,0,*4C
1496822927.31,385,17.5,73726.3,14.55,1.37,1.75,0,*40
1496822928.53,386,17.5,73728.3,14.53,1.17,1.63,0,*40
1496822929.76,387,17.56,73728.5,14.53,1.25,1.63,0,*40